SCP
0 0 0 0 0 0 0 0 0 0 0 0 0 0 0 0 0 0 0 0 0 0 0 0 0 0 0 0 0 0 0 0 0 0 0 0 0 0 0 0 0 0 0
0 0 0 0 0 0 0 0 0 0 0 0 0 0 0 0 0 0 0 0 0 0 0 0 0 0 0 0 0 0 0 0 0 0 0 0 0 0 0 0 0 0 0
0 0 0 0 0 0 0 0 0 0 0 0 0 0 0 0 0 0 0 0 0 0 0 0 0 0 0 0 0 0 0 0 0 0 0 0 0 0 0 0 0 0 0
0 0 0 0 0 0 0 0 0 0 0 0 0 0 0 0 0 0 0 0 0 0 0 0 0 0 0 0 0 0 0 0 0 0 0 0 0 0 0 0 0 0 0
0 0 0 0 0 0 0 0 0 0 0 0 0 0 0 0 0 0 0 0 0 0 0 0 0 0 0 0 0 0 0 0 0 0 0 0 0 0 0 0 0 0 0
0 0 0 0 0 0 0 0 0 0 0 0 0 0 0 0 0 0 0 0 0 0 0 0 0 0 0 0 0 0 0 0 0 0 0 0 0 0 0 0 0 0 0
0 0 0 0 0 0 0 0 0 0 0 0 0 0 0 0 0 0 0 0 0 0 0 0 0 0 0 0 0 0 0 0 0 0 0 0 0 0 0 0 0 0 0
0 0 0 0 0 0 0 0 0 0 0 0 0 0 0 0 0 0 0 0 0 0 0 0 0 0 0 0 0 0 0 0 0 0 0 0 0 0 0 0 0 0 0
0 0 0 0 0 0 0 0 0 0 0 0 0 0 0 0 0 0 0 0 0 0 0 0 0 0 0 0 0 0 0 0 0 0 0 0 0 0 0 0 0 0 0
0 0 0 0 0 0 0 0 0 0 0 0 0 0 0 0 0 0 0 0 0 0 0 0 0 0 0 0 0 0 0 0 0 0 0 0 0 0 0 0 0 0 0
0 0 0 0 0 0 0 0 0 0 0 0 0 0 0 0 0 0 0 0 0 0 0 0 0 0 0 0 0 0 0 0 0 0 0 0 0 0 0 0 0 0 0
0 0 0 0 0 0 0 0 0 0 0 0 0 0 0 0 0 0 0 0 0 0 0 0 0 0 0 0 0 0 0 0 0 0 0 0 0 0 0 0 0 0 0
0 0 0 0 0 0 0 0 0 0 0 0 0 0 0 0 0 0 0 0 0 0 0 0 0 0 0 0 0 0 0 0 0 0 0 0 0 0 0 0 0 0 0
0 0 0 0 0 0 0 0 0 0 0 0 0 0 0 0 0 0 0 0 0 0 0 0 0 0 0 0 0 0 0 0 0 0 0 0 0 0 0 0 0 0 0
0 0 0 0 0 0 0 0 0 0 0 0 0 0 0 0 0 0 0 0 0 0 0 0 0 0 0 0 0 0 0 0 0 0 0 0 0 0 0 0 0 0 0
0 0 0 0 0 0 0 0 0 0 0 0 0 0 0 0 0 0 0 0 0 0 0 0 0 0 0 0 0 0 0 0 0 0 0 0 0 0 0 0 0 0 0
0 0 0 0 0 0 0 0 0 0 0 0 0 0 0 0 0 0 0 0 0 0 0 0 0 0 0 0 0 0 0 0 0 0 0 0 0 0 0 0 0 0 0
0 0 0 0 0 0 0 0 0 0 0 0 0 0 0 0 0 0 0 0 0 0 0 0 0 0 0 0 0 0 0 0 0 0 0 0 0 0 0 0 0 0 0
0 0 0 0 0 0 0 0 0 0 0 0 0 0 0 0 0 0 0 0 0 0 0 0 0 0 0 0 0 0 0 0 0 0 0 0 0 0 0 0 0 0 0
0 0 0 0 0 0 0 0 0 0 0 0 0 0 0 0 0 0 0 0 0 0 0 0 0 0 0 0 0 0 0 0 0 0 0 0 0 0 0 0 0 0 0
0 0 0 0 0 0 0 0 0 0 0 0 0 0 0 0 0 0 0 0 0 0 0 0 0 0 0 0 0 0 0 0 0 0 0 0 0 0 0 0 0 0 0
0 0 0 0 0 0 0 0 0 0 0 0 0 0 0 0 0 0 0 0 0 0 0 0 0 0 0 0 0 0 0 0 0 0 0 0 0 0 0 0 0 0 0
0 0 0 0 0 0 0 0 0 0 0 0 0 0 0 0 0 0 0 0 0 0 0 0 0 0 0 0 0 0 0 0 0 0 0 0 0 0 0 0 0 0 0
0 0 0 0 0 0 0 0 0 0 0 0 0 0 0 0 0 0 0 0 0 0 0 0 0 0 0 0 0 0 0 0 0 0 0 0 0 0 0 0 0 0 0
0 0 0 0 0 0 0 0 0 0 0 0 0 0 0 0 0 0 0 0 0 0 0 0 0 0 0 0 0 0 0 0 0 0 0 0 0 0 0 0 0 0 0
0 0 0 0 0 0 0 0 0 0 0 0 0 0 0 0 0 0 0 0 0 0 0 0 0 0 0 0 0 0 0 0 0 0 0 0 0 0 0 0 0 0 0
Wind_Speed
3 3 2 2 2 2 2 3 3 2 2 2 2 2 2 2 2 2 2 2 2 2 2 2 3 2 2 2 2 2 2 3 5 5 4 3 4 5 5 5 5 5 6
3 3 2 2 2 2 2 2 2 3 2 3 2 3 3 3 3 3 3 3 3 3 3 3 3 2 3 2 2 3 3 3 4 7 5 4 4 4 5 5 5 5 5
3 3 2 2 2 3 2 2 3 3 2 2 2 3 3 3 3 3 3 3 3 3 3 3 4 3 3 3 3 3 3 3 3 5 6 4 4 3 5 5 5 5 5
3 3 3 3 3 3 2 2 2 2 2 3 3 3 3 3 3 3 3 3 3 3 3 3 3 4 4 4 3 4 3 3 3 4 5 4 4 4 3 4 5 4 5
3 3 4 3 2 2 2 2 2 2 2 2 3 3 3 3 3 3 3 3 3 3 3 3 4 4 5 4 4 3 3 3 3 4 5 5 4 3 4 4 5 6 5
4 4 3 2 2 2 2 2 2 2 2 2 2 3 3 3 5 6 4 3 3 4 4 3 3 4 4 6 6 6 5 4 4 4 5 6 6 5 4 5 5 5 5
3 3 2 2 2 2 2 2 2 2 2 2 2 2 3 4 6 6 5 3 3 4 4 3 3 3 3 4 5 6 6 7 7 6 7 7 7 5 5 6 5 6 7
3 2 2 2 2 2 2 2 2 2 2 2 2 2 3 4 6 6 5 3 3 3 3 3 4 4 3 3 3 4 4 4 5 5 6 7 6 5 5 6 6 6 6
2 2 2 2 2 2 2 2 2 2 2 2 2 2 3 4 5 5 4 2 2 3 3 3 3 3 5 5 3 3 4 4 5 6 6 7 8 8 6 4 4 4 6
2 2 2 2 2 3 3 2 1 1 2 2 2 2 2 3 4 5 4 1 2 2 2 2 3 3 4 5 3 3 4 5 4 4 5 5 5 5 7 4 4 4 4
1 1 1 1 2 2 2 1 1 1 1 1 2 2 2 2 3 4 4 2 2 2 2 2 2 4 5 5 5 3 5 5 3 4 4 4 3 3 3 3 3 4 5
1 1 0 0 1 1 1 0 0 1 0 1 1 2 2 2 3 4 5 4 3 2 3 2 3 5 6 6 5 5 5 4 3 3 3 3 3 3 3 3 3 4 5
1 1 1 0 0 0 1 1 0 0 0 1 1 1 2 2 3 5 5 5 5 3 2 4 5 6 6 5 4 5 4 2 2 3 3 4 3 3 3 3 3 3 4
2 1 1 1 1 1 0 1 1 1 1 1 1 2 2 2 2 2 2 3 3 3 2 3 5 5 4 3 3 3 2 2 3 3 4 3 2 2 2 3 3 3 3
2 1 1 1 1 0 0 0 1 2 2 2 2 2 2 2 3 5 3 2 2 2 2 2 2 1 1 2 2 2 2 2 3 3 3 3 3 3 3 2 2 2 2
2 1 1 1 1 0 0 1 2 2 2 2 2 2 2 3 5 5 5 5 5 4 2 1 1 2 2 2 2 3 3 3 3 4 3 3 3 3 3 2 2 1 2
3 2 1 1 1 1 1 1 1 3 4 4 4 4 4 5 5 5 5 5 4 4 1 1 1 2 2 2 2 3 3 3 3 3 4 3 3 2 2 2 2 2 2
2 2 2 2 2 1 1 1 1 1 2 3 5 6 6 5 6 6 5 4 3 3 1 1 2 2 2 2 2 3 3 3 3 3 3 3 2 2 2 2 2 3 3
2 2 2 2 1 1 1 1 1 1 1 2 3 4 5 5 6 6 5 2 1 2 2 2 2 2 3 3 3 3 3 3 3 3 3 3 3 2 3 3 3 3 3
2 2 2 2 2 1 1 1 1 1 1 1 2 2 2 2 2 3 2 1 1 2 2 2 3 3 3 3 3 3 3 3 3 3 3 3 3 3 3 3 3 3 3
2 2 2 2 2 2 2 2 2 1 1 2 2 3 3 1 2 2 2 2 2 2 3 3 3 3 3 3 3 3 3 3 3 3 3 3 3 3 3 3 3 3 3
2 2 2 2 2 2 2 2 2 2 2 2 2 3 4 2 2 2 3 3 3 3 3 3 3 3 3 3 3 3 4 4 4 3 4 4 3 3 3 3 3 2 2
3 2 2 2 2 2 1 1 2 2 2 2 2 2 2 2 2 3 3 3 3 3 3 3 3 4 3 3 3 4 5 5 5 4 4 4 4 3 3 3 3 3 3
3 3 3 2 2 2 2 2 2 2 2 2 2 2 2 2 3 3 3 3 3 3 3 3 4 5 6 5 4 4 4 5 5 5 6 5 5 4 3 3 4 4 4
3 3 3 3 3 2 2 2 2 2 2 2 2 2 2 3 3 3 3 3 4 4 4 4 4 4 5 7 6 6 7 9 7 5 5 4 5 5 4 4 4 3 3
3 3 2 2 3 3 3 3 3 2 2 2 2 2 3 3 3 3 3 3 3 4 4 4 5 6 6 6 7 8 9 9 8 7 5 4 4 4 4 4 4 4 3
Wind_Direction
202 204 203 213 215 209 212 217 220 224 223 226 234 240 252 244 226 223 229 237 240 254 253 240 250 249 243 242 233 235 240 239 261 280 281 285 292 295 304 300 297 295 295
200 194 201 209 210 214 220 224 223 223 225 227 229 236 248 250 233 225 230 234 233 248 258 255 259 257 248 244 237 240 245 243 250 274 286 290 287 292 297 297 300 300 294
188 190 198 205 212 222 228 229 224 224 232 236 231 236 246 248 238 235 235 235 237 243 245 248 258 255 259 257 249 249 253 257 252 261 277 283 285 295 302 299 297 294 295
186 193 204 214 218 224 231 231 228 225 228 238 243 245 249 249 242 238 237 239 243 249 250 250 255 250 253 258 259 256 256 261 262 264 273 281 282 290 293 296 302 302 301
187 199 214 218 215 216 223 230 230 229 232 238 242 251 253 248 240 238 238 242 246 256 261 259 259 256 257 261 263 259 254 261 267 269 275 282 283 291 290 290 292 302 296
191 206 210 205 209 218 225 225 227 231 236 237 239 247 254 254 260 259 252 240 244 246 258 266 267 262 265 275 273 268 256 250 255 262 270 274 282 285 287 286 291 301 295
196 206 204 201 212 223 227 224 228 232 236 243 247 249 257 259 266 266 263 255 245 246 251 260 270 276 271 269 279 282 278 270 260 258 262 268 276 278 281 284 282 281 279
199 208 207 206 222 228 217 225 234 236 237 242 252 253 259 266 274 272 272 257 249 254 252 254 263 275 276 280 274 279 283 284 281 272 264 272 275 278 270 272 279 284 284
198 210 217 215 220 218 223 231 235 228 239 251 258 256 263 273 281 282 284 255 252 263 266 262 261 267 280 290 284 283 292 293 298 290 284 288 291 293 289 282 282 284 289
221 223 220 215 212 217 228 236 242 242 245 264 278 269 264 272 285 291 294 272 266 274 280 273 265 269 277 287 280 270 280 290 300 308 306 302 295 292 294 273 261 266 280
229 222 213 212 218 216 219 227 232 236 256 272 288 301 296 288 291 301 304 301 267 273 278 281 274 277 279 282 283 268 273 293 296 295 296 295 296 295 295 289 271 255 257
152 139 151 236 224 177 170 214 201 185 221 277 303 320 326 319 311 304 309 307 296 268 270 276 279 285 288 289 290 289 298 304 289 287 285 285 285 288 293 294 286 271 259
108 115 107 46 51 100 145 168 147 158 214 267 279 296 314 324 317 316 309 311 308 297 275 277 287 289 293 294 303 307 311 303 286 279 279 279 279 281 288 290 289 285 286
135 133 117 106 70 59 78 148 174 199 222 245 257 276 294 308 309 308 307 315 319 320 317 307 304 301 304 311 313 316 313 297 284 273 276 284 292 291 287 293 298 308 306
150 145 126 114 121 83 25 214 230 236 218 233 246 254 266 282 290 305 312 309 308 301 323 330 330 322 327 327 324 322 318 313 305 290 280 283 286 287 292 301 299 305 290
160 150 141 136 124 113 49 352 349 334 325 321 307 294 296 305 316 320 321 326 328 332 345 300 296 297 298 306 310 313 315 307 305 297 280 273 277 279 287 297 290 278 283
174 177 169 172 173 180 188 194 318 346 358 356 348 337 333 331 336 339 340 347 358 8 16 318 297 288 288 291 290 293 297 301 300 292 279 272 271 272 277 282 285 283 282
174 180 180 182 182 189 201 211 216 247 311 326 338 348 350 351 353 351 353 10 6 1 339 300 290 285 283 281 281 284 289 295 298 300 295 281 266 265 268 268 266 270 276
173 179 177 176 176 183 193 198 207 222 257 296 317 328 341 347 353 357 7 31 332 316 314 299 285 280 279 279 279 279 281 285 288 291 296 292 274 257 259 259 260 263 265
177 183 178 173 168 169 176 180 197 215 243 272 287 296 312 337 335 335 354 334 306 288 288 288 285 281 279 276 276 280 286 288 290 289 287 288 284 265 256 253 251 251 255
171 172 170 172 178 183 186 190 199 212 234 260 274 277 291 296 295 299 302 297 284 280 280 281 283 281 278 275 273 275 278 279 280 281 283 280 277 273 265 251 243 244 251
170 173 175 181 185 189 196 197 199 212 227 247 273 292 312 317 291 289 288 285 281 272 267 270 274 273 272 269 265 265 269 272 273 274 276 277 277 270 262 256 251 246 240
166 172 177 182 183 184 193 203 207 216 229 244 257 273 285 279 277 277 280 282 283 282 278 270 272 278 277 273 265 256 257 260 260 259 263 266 268 264 252 250 253 252 245
173 180 184 188 185 188 198 210 217 224 231 243 252 261 268 271 276 279 281 283 283 282 278 274 270 272 279 284 277 266 260 264 262 254 250 249 255 256 249 245 246 246 248
178 185 188 192 193 197 201 211 220 227 235 242 253 265 273 278 282 285 286 285 286 287 290 288 280 279 281 284 284 279 276 279 276 263 247 240 245 246 242 243 245 248 251
185 189 194 195 198 199 202 212 221 228 239 249 255 260 266 273 278 282 285 285 289 293 295 292 286 285 287 287 285 286 284 282 276 267 245 232 233 238 235 238 238 238 240